Overview Statistics Trail Chart Weather Telemetry Raw packets
 

This is the latest recevied weather packets stored in our database for station/object OE5MMP-13. If no packets are shown the sender has not sent any weather packets the latest 10 day(s).

<< 21 22 23 24 25 26 27 >>
Time Temp. Humidity Pressure Rain* Wind** Luminosity Snow
1788354195 23.33° C 58% 1021.6 hPa 0 mm - 352 W/m² -
1788353595 23.33° C 58% 1021.7 hPa 0 mm - 408 W/m² -
1788352995 22.78° C 58% 1021.4 hPa 0 mm - 464 W/m² -
1788352395 22.78° C 58% 1021.5 hPa 0 mm - 255 W/m² -
1788351795 23.33° C 57% 1021.5 hPa 0 mm - 589 W/m² -
1788351195 22.78° C 57% 1021.6 hPa 0 mm - 418 W/m² -
1788350595 23.33° C 57% 1021.7 hPa 0 mm - 361 W/m² -
1788349995 23.33° C 58% 1021.7 hPa 0 mm - 358 W/m² -
1788349394 22.78° C 57% 1021.7 hPa 0 mm - 380 W/m² -
1788348794 23.33° C 57% 1021.8 hPa 0 mm - 407 W/m² -
1788348195 22.78° C 57% 1021.9 hPa 0 mm - 433 W/m² -
1788347595 23.33° C 57% 1022.1 hPa 0 mm - 550 W/m² -
1788346994 22.78° C 57% 1022.1 hPa 0 mm - 646 W/m² -
1788346394 22.78° C 58% 1022.2 hPa 0 mm - 394 W/m² -
1788345794 22.78° C 58% 1022.2 hPa 0 mm - 350 W/m² -
1788345194 22.78° C 57% 1022.3 hPa 0 mm - 376 W/m² -
1788344595 22.78° C 56% 1022.2 hPa 0 mm - 467 W/m² -
1788343994 22.78° C 57% 1022.4 hPa 0 mm - 542 W/m² -
1788343395 22.78° C 57% 1022.5 hPa 0 mm - 598 W/m² -
1788342794 22.22° C 57% 1022.6 hPa 0 mm - 305 W/m² -
1788342194 22.78° C 57% 1022.6 hPa 0 mm - 300 W/m² -
1788341594 23.33° C 57% 1022.7 hPa 0 mm - 538 W/m² -
1788340994 22.78° C 57% 1022.6 hPa 0 mm - 725 W/m² -
1788340394 22.22° C 58% 1022.7 hPa 0 mm - 676 W/m² -
1788339794 22.22° C 58% 1022.8 hPa 0 mm - 659 W/m² -

* Rain latest hour (hover to see other rain measurements)
** Current wind speed in m/s (hover to see current wind gust speed)